www.pogodaiklimat.ru

Погода и климат >> Архив погоды >> Гана >> Koforidua


ПОГОДА в Koforidua

  • Прогноз погоды в Koforidua
  • Монитор погоды в Koforidua
  • Климат города

АРХИВ ПОГОДЫ в Koforidua

Время (UTC), дата Ветер
(напр.,м/с)
 
Видим.   Явления Облачность Т
(С)
Тd
(С)
f
(%)
Тe
(С)
Тes
(С)
Комфортность P
(гПа)
Po
(гПа)
Тmin
(С)
Tmax
(С)
R
(мм)
R24
(мм)
S
(см)
18 14.10 В 1 9000 м гроза, ливневой дождь 9/9 330 м
[Cb cap]
+25.8 +21.9 79 +33 +33 очень
душно
1011.3 1011.0 +32.2 2
21 14.10 штиль 0 12 км {гроза, дождь} 6/6 330 м
[Sc]
+24.5 +23.1 92 +33 +33 очень
душно
1013.2 1013.0
06 15.10 штиль 0 12 км 6/5 330 м
[Sc Ci fib]
+23.6 +22.6 94 +31 +31 очень
душно
1011.3 1011.0
09 15.10 З 1 14 км 6/6 480 м
[Cu med, cong]
+28.0 +23.8 78 +39 +44 очень
душно
1014.8 1015.0
12 15.10 СЗ 1 16 км 8/8 360 м
[Cu Sc]
+30.5 +24.7 71 +43 +48 опасность
перегрева
1013.1 1013.0
15 15.10 ЮЗ 1 12 км гроза без осадков {дождь} 8/8 330 м
[Cb cap]
+24.6 +22.3 87 +32 +35 очень
душно
1011.7 1012.0
18 15.10 штиль 0 13 км в посл. час гроза 9/5 360 м
[Sc Ac trans]
+24.6 +22.7 89 +32 +32 очень
душно
1012.2 1012.0 +30.8 0.4
21 15.10 штиль 0 13 км 8/8 360 м
[Sc]
+24.0 +22.6 92 +31 +31 очень
душно
1014.3 1014.0
00 16.10 штиль 0 14 км 4/4 360 м
[Sc]
+23.6 +22.2 92 +31 +31 очень
душно
1014.1 1014.0
03 16.10 штиль 0 14 км 8/8 330 м
[Sc]
+22.6 +21.8 95 +30 +30 очень
душно
1012.9 1013.0
06 16.10 штиль 0 14 км 4/3 330 м
[Sc Ci fib]
+22.0 +21.5 97 +29 +29 очень
душно
1013.6 1014.0 +21.5 0.4
09 16.10 ЮЗ 1 14 км 4/4 480 м
[Cu med, cong]
+27.6 +23.8 80 +38 +46 очень
душно
1015.8 1016.0
12 16.10 ЮВ 1 16 км 6/6 480 м
[Cu med, cong]
+32.0 +23.5 61 +43 +53 опасность
перегрева
1013.3 1013.0
21 16.10 СВ 1 12 км в посл. час гроза {дождь} 9/4 330 м
[Sc]
+23.5 +22.1 92 +30 +30 очень
душно
1015.4 1015.0
03 17.10 штиль 0 12 км 4/4 330 м
[Sc]
+23.4 +22.2 93 +32 +32 очень
душно
1013.0 1013.0 546
06 17.10 0 дымка н/о +22.2 1013.5 +22.5 11
09 17.10 СЗ 1 14 км 8/6 360 м
[Cu Sc Ac trans]
+27.1 +23.6 81 +37 +40 очень
душно
1014.5 1015.0
12 17.10 ЮВ 1 16 км 8/6 480 м
[Cu med, cong Ac trans]
+30.5 +23.7 67 +42 +48 опасность
перегрева
1012.2 1012.0
15 17.10 ЮЗ 1 18 км 4/4 500 м
[Cu med, cong Ci fib]
+32.0 +23.0 59 +42 +50 опасность
перегрева
1009.9 1010.0
18 17.10 ЮЗ 2 14 км 6/1 360 м
[Sc]
+28.5 +23.6 75 +39 +39 очень
душно
1011.5 1012.0 +32.0
21 17.10 штиль 0 14 км 8/8 360 м
[Sc]
+26.0 +23.7 87 +35 +35 очень
душно
1014.1 1014.0
03 18.10 штиль 0 13 км 9/9 360 м
[Sc]
+24.9 +23.5 92 +34 +34 очень
душно
1011.7 1012.0
06 18.10 СЗ 1 9000 м дымка 9/9 360 м
[Sc]
+24.4 +23.0 92 +32 +32 очень
душно
1012.2 1012.0 +23.9
09 18.10 З 1 14 км 8/8 360 м
[Cu Sc Ac trans]
+27.5 +23.4 78 +37 +39 очень
душно
1013.5 1014.0
12 18.10 ЮВ 1 16 км 5/5 480 м
[Cu med, cong]
+31.1 +23.5 64 +42 +54 опасность
перегрева
1011.8 1012.0
15 18.10 ЮЗ 5 18 км 5/5 500 м
[Cb cap]
+32.5 +23.7 60 +44 +47 опасность
перегрева
1008.0 1008.0
18 18.10 штиль 0 10 км гроза без осадков {дождь} 9/9 330 м
[Cb cap]
+23.5 +21.4 88 +30 +30 очень
душно
1010.4 1010.0 +33.2 14
21 18.10 СВ 1 13 км {гроза} 8/8 330 м
[Sc]
+23.0 +21.6 92 +31 +31 очень
душно
1012.5 1013.0
00 19.10 С 1 13 км {гроза} 9/9 330 м
[Sc]
+23.4 +22.2 93 +32 +32 очень
душно
1012.1 1012.0
03 19.10 З 1 12 км 4/4 330 м
[Sc]
+23.5 +22.3 93 +31 +31 очень
душно
1010.3 1010.0
06 19.10 штиль 0 12 км 4/3 330 м
[Sc Ci fib]
+22.5 +21.7 95 +30 +30 очень
душно
1011.4 1011.0 +22.0 14
18 19.10 штиль 0 14 км {гроза} 8/8 360 м
[Sc]
+26.0 +23.3 85 +35 +35 очень
душно
1009.1 1009.0 +33.0
21 19.10 штиль 0 14 км 8/5 360 м
[Sc Ci sp]
+25.0 +22.9 88 +33 +33 очень
душно
1010.7 1011.0
00 20.10 штиль 0 14 км 4/4 360 м
[Sc]
+24.5 +23.1 92 +33 +33 очень
душно
1011.5 1012.0
06 20.10 штиль 0 14 км 9/9 360 м
[Sc]
+23.6 +22.2 92 +31 +31 очень
душно
1010.4 1010.0 +23.0
09 20.10 ЮЗ 1 16 км 5/5 360 м
[Cu Sc]
+28.1 +23.5 76 +38 +44 очень
душно
1013.2 1013.0
12 20.10 ЮЗ 1 16 км 6/6 500 м
[Cu med, cong]
+31.9 +24.5 65 +45 +54 опасность
перегрева
1010.1 1010.0
18 20.10 Ю 1 18 км 6/5 360 м
[Cu Sc Ci fib]
+29.5 +23.9 72 +41 +41 опасность
перегрева
1009.0 1009.0 +34.9
03 21.10 штиль 0 14 км 9/9 360 м
[Sc]
+25.0 +26.6 100 +36 +36 очень
душно
1009.6 1010.0
06 21.10 штиль 0 14 км 8/6 360 м
[Sc Ci fib]
+24.2 +22.8 92 +32 +32 очень
душно
1010.8 1011.0 +23.6

 

Местоположение метеостанции Koforidua (Гана): широта 6.08 долгота -0.25 высота над уровнем моря 167 м.

В архиве по умолчанию представлена погода в Koforidua за последнюю неделю. Архивные данные за месяц целиком и за предыдущие месяцы, начиная с января 2011 года, Вы можете получить, выбрав интересующий диапазон дат из раскрывающегося списка и нажав кнопку "Ввод!".


*Определитесь, кто Вы:
робот инопланетянин человек

Внимание! Время в таблицах - всемирное. Для получения местного времени необходимо прибавить поправку, которая в Koforidua равна 1 ч.

Смотрите также архив погоды в соседних городах и на ближайших метеорологических станциях:

Погода в Akuse (Гана) (41 км)
Погода в Accra (Гана) (54 км)
Погода в Tema (Гана) (58 км)
Погода в Akim Oda (Гана) (82 км)
Погода в Abetifi (Гана) (86 км)
Погода в Ho (Гана) (98 км)
Погода в Ada (Гана) (103 км)
Погода в Akatsi (Гана) (116 км)
Погода в Saltpond (Гана) (133 км)
Погода в Kumasi (Гана) (165 км)

Пояснения к столбцам:

Ветер - указаны скорость ветра в м/с - средняя за 10 мин, порывы в срок и между сроками (в фигурных скобках) и направление, откуда дует ветер: С - северный, СВ - северо-восточный, В - восточный, ЮВ - юго-восточный, Ю - южный, ЮЗ - юго-западный, З - западный, СЗ - северо-западный.
Видимость - горизонтальная дальность видимости в метрах или километрах. При видимости от 1 до 10 км при отсутствии осадков обычно наблюдается дымка, при ухудшении видимости до 1 км и менее - туман. В сухую погоду видимость может ухудшаться дымом, пылью или мглою.
Явления - указаны атмосферные явления, наблюдавшиеся в срок или в последний час перед сроком; фигурными скобками обозначены явления, наблюдавшиеся между сроками (за 1-3 часа до срока); квадратными скобками обозначены град или гололедные отложения с указанием их диаметра в мм.
Облачность - указаны через наклонную черту общая и нижняя облачность в баллах и высота нижней границы облаков в метрах; квадратными скобками обозначены формы облаков: Ci - перистые, Cs - перисто-слоистые, Cc - перисто-кучевые, Ac - высококучевые, As - высокослоистые, Sc - слоисто-кучевые, Ns - слоисто-дождевые, Cu - кучевые, Cb - кучево-дождевые. Подробнее классификацию облаков см. в Атласе облаков (PDF).
T - Температура воздуха - температура, измеренная на высоте 2 м над землей.
Td - Температура точки росы - температура, при понижении до которой содержащийся в воздухе водяной пар достигнет насыщения.
f - Относительная влажность воздуха - влажноcть воздуха, измеренная на высоте 2 м над землей.
Te - Эффективная температура - температура, которую ощущает одетый по сезону человек в тени. Характеристика душности погоды. При расчете учитывается влияние влажности воздуха и скорости ветра на теплоощущения человека.
Tes - Эффективная температура на солнце - температура, которую ощущает человек, с поправкой на солнечный нагрев. Характеристика знойности погоды. Зависит от высоты солнца над горизонтом, облачности и скорости ветра. Ночью, в пасмурную погоду, а также при ветре 12 м/с и более поправка равна нулю.
P - Атмосферное давление - приведенное к уровню моря атмосферное давление.
Po - Атмосферное давление - измеренное на уровне метеостанции атмосферное давление.
Tmin - Минимальная температура - минимум температуры воздуха на высоте 2 м над землей.
Tmax - Максимальная температура - максимум температуры воздуха на высоте 2 м над землей.
R - Количество осадков - Количество выпавших осадков за период времени, мм. При наведении курсора мыши на число - период времени, за который выпало указанное количество осадков.
R24 - Количество осадков - Количество выпавших осадков за 24 часа, мм.
S - Снежный покров - Высота снежного покрова, см. При наведении курсора мыши на число - состояние снежного покрова и степень покрытия местности в баллах.